Regional Weather Roundup
Issued by NWS

Home | Current Version | Previous Version | Graphics & Text | Print | Product List | Glossary On
Versions: 1 2 3 4 5 6 7 8 9 10 11 12 13 14 15 16 17 18 19 20 21 22 23 24 25 26 27 28 29 30 31 32 33 34 35 36 37 38 39 40 41 42 43 44 45 46 47 48 49 50
000
ASUS43 KLMK 020602
RWRKY
KENTUCKY REGIONAL WEATHER ROUNDUP
NATIONAL WEATHER SERVICE LOUISVILLE KY
200 AM EDT TUE SEP 02 2014

NOTE "FAIR" INDICATES FEW OR NO CLOUDS BELOW 12,000 FEET
WITH NO SIGNIFICANT WEATHER AND/OR OBSTRUCTIONS TO VISIBILITY.

KYZ001>023-026-027-061>063-070>075-020700-
WESTERN AND SOUTH CENTRAL KENTUCKY

CITY           SKY/WX    TMP DP  RH WIND       PRES   REMARKS
PADUCAH        FAIR      79  72  79 S5        29.96R
HENDERSON      FAIR      75  70  83 S6        29.96R
OWENSBORO      NOT AVBL
HOPKINSVILLE   FAIR      76  71  84 S7        30.00R
BOWLING GREEN  FAIR      76  68  76 S5        30.02R
GLASGOW        FAIR      74  67  78 CALM      30.02S
$$

KYZ024-025-028>034-038-045-046-053-020700-
NORTH CENTRAL KENTUCKY

CITY           SKY/WX    TMP DP  RH WIND       PRES   REMARKS
LOUISVILLE/SDF MOCLDY    77  72  84 SW8       29.97S
LOUISVILLE/LOU FAIR      78  70  76 SW3       29.98S
FORT KNOX      FAIR      73  73 100 S3        29.99R
$$

KYZ035>037-039>044-047>052-055>060-089>105-020700-
NORTHEAST KENTUCKY

CITY           SKY/WX    TMP DP  RH WIND       PRES   REMARKS
LEXINGTON      FAIR      75  70  84 S8        30.01F
COVINGTON      FAIR      74  70  87 S7        29.97S
FRANKFORT      MOCLDY    75  71  87 S7        29.98F
$$

KYZ054-064>069-076>088-106>120-020700-
SOUTHEAST KENTUCKY

CITY           SKY/WX    TMP DP  RH WIND       PRES   REMARKS
JACKSON        FAIR      74  68  81 SW5       30.06S
LONDON         FAIR      74  67  78 S5        30.07S
SOMERSET       FAIR      72  70  94 S3        30.06F
MIDDLESBORO    FAIR      70  70  98 CALM      30.09S
MONTICELLO     FAIR      70  69  96 CALM      30.07S
$$



USA.gov is the U.S. government's official web portal to all federal, state and local government web resources and services.